TimeEDT,TemperatureF,Dew PointF,Humidity,Sea Level PressureIn,VisibilityMPH,Wind Direction,Wind SpeedMPH,Gust SpeedMPH,PrecipitationIn,Events,Conditions,WindDirDegrees,DateUTC
12:54 AM,53.1,46.0,77,29.77,10.0,West,4.6,-,N/A,,Scattered Clouds,280,2012-10-16 04:54:00
1:54 AM,50.0,45.0,83,29.78,10.0,WNW,5.8,-,N/A,,Scattered Clouds,290,2012-10-16 05:54:00
2:54 AM,50.0,43.0,77,29.77,10.0,WNW,5.8,-,N/A,,Clear,290,2012-10-16 06:54:00
3:54 AM,52.0,43.0,71,29.78,10.0,WNW,9.2,-,N/A,,Overcast,290,2012-10-16 07:54:00
4:54 AM,51.1,42.1,71,29.79,10.0,WNW,10.4,-,N/A,,Overcast,290,2012-10-16 08:54:00
5:54 AM,51.1,41.0,68,29.82,10.0,West,4.6,-,N/A,,Overcast,260,2012-10-16 09:54:00
6:54 AM,52.0,41.0,66,29.83,10.0,West,8.1,-,N/A,,Overcast,280,2012-10-16 10:54:00
8:54 AM,53.1,39.9,61,29.87,10.0,NNW,15.0,-,N/A,,Mostly Cloudy,340,2012-10-16 12:54:00
9:54 AM,55.0,39.0,55,29.88,10.0,NNW,16.1,-,N/A,,Partly Cloudy,340,2012-10-16 13:54:00
10:54 AM,55.9,37.9,51,29.89,10.0,NW,16.1,-,N/A,,Partly Cloudy,320,2012-10-16 14:54:00
11:54 AM,55.9,39.0,53,29.89,10.0,NW,18.4,25.3,N/A,,Mostly Cloudy,320,2012-10-16 15:54:00
12:54 PM,55.9,39.9,55,29.89,10.0,NW,15.0,20.7,N/A,,Overcast,310,2012-10-16 16:54:00
1:54 PM,57.0,39.9,53,29.86,10.0,NNW,15.0,-,N/A,,Overcast,340,2012-10-16 17:54:00
2:54 PM,59.0,41.0,51,29.85,10.0,NNW,11.5,-,N/A,,Mostly Cloudy,330,2012-10-16 18:54:00
4:54 PM,59.0,37.9,46,29.85,10.0,NW,13.8,-,N/A,,Clear,320,2012-10-16 20:54:00
5:54 PM,57.0,37.9,49,29.85,10.0,NNW,6.9,-,N/A,,Clear,340,2012-10-16 21:54:00
6:54 PM,54.0,37.9,55,29.88,10.0,Calm,Calm,-,N/A,,Clear,0,2012-10-16 22:54:00
7:54 PM,48.9,39.9,71,29.89,10.0,Calm,Calm,-,N/A,,Clear,0,2012-10-16 23:54:00
8:54 PM,48.0,39.9,74,29.91,10.0,Calm,Calm,-,N/A,,Clear,0,2012-10-17 00:54:00
9:54 PM,45.0,39.9,82,29.94,10.0,WSW,3.5,-,N/A,,Clear,250,2012-10-17 01:54:00
10:54 PM,43.0,39.9,89,29.94,10.0,Calm,Calm,-,N/A,,Clear,0,2012-10-17 02:54:00
11:54 PM,42.1,39.0,89,29.94,10.0,NNW,3.5,-,N/A,,Clear,330,2012-10-17 03:54:00